DW8790 Maspalomas ES current weather conditions

sailwx.info

Wind from 238 at 4 knots gusting 7

Air temperature 27.8° C
Dewpoint 18.5° C

Last reported at 2019-Aug-22 15:05 UTC.
Time now 2019-Aug-22 15:49 UTC

Location: N 27°46' W 015°34'.
View on Google Maps.

See reports from other nearby stations

  
Tides and Currents Weather Stations Pressure Air Temp Water Temp Dewpoint Dewpoint Depression Visibility Wind Speed Wind Dir Waves Ship Positions
date/time (UTC)wind fromknots sea level pressurealtimeterstation pressurevisibilityair tempwater tempwave heightnotes
2019-Aug-22 15:05 238 4 gusting 7 27.8
2019-Aug-22 15:00 229 3 gusting 8 27.8
2019-Aug-22 14:55 223 2 gusting 8 27.8
2019-Aug-22 14:50 223 5 gusting 7 27.8
2019-Aug-22 14:45 214 5 gusting 7 27.8
2019-Aug-22 14:40 223 4 gusting 7 27.2
2019-Aug-22 14:35 223 5 gusting 7 27.2
2019-Aug-22 14:30 224 5 gusting 10 27.2
2019-Aug-22 14:25 224 6 gusting 8 27.2
2019-Aug-22 14:20 218 5 gusting 7 27.2
2019-Aug-22 14:15 216 6 gusting 8 27.2
2019-Aug-22 14:10 218 5 gusting 10 27.2
2019-Aug-22 14:05 222 5 gusting 7 27.2
2019-Aug-22 14:00 217 2 gusting 7 26.7
2019-Aug-22 13:55 232 3 gusting 6 26.7
2019-Aug-22 13:50 218 3 gusting 6 26.7
2019-Aug-22 13:45 197 3 gusting 6 26.7
2019-Aug-22 13:40 218 4 gusting 7 26.7
2019-Aug-22 13:35 247 2 gusting 6 26.7
2019-Aug-22 13:30 214 3 gusting 6 26.7
2019-Aug-22 13:25 223 4 gusting 6 26.7
2019-Aug-22 13:20 150 1 gusting 6 26.7
2019-Aug-22 13:15 193 4 gusting 7 26.1
2019-Aug-22 13:10 166 2 gusting 6 26.7
2019-Aug-22 13:05 183 4 gusting 6 26.7
2019-Aug-22 13:00 190 5 gusting 10 26.7
2019-Aug-22 12:55 209 5 gusting 7 26.7
2019-Aug-22 12:50 186 4 gusting 8 26.7
2019-Aug-22 12:45 196 4 gusting 7 26.7
2019-Aug-22 12:40 204 5 gusting 8 26.7
2019-Aug-22 12:35 185 4 gusting 7 27.2
2019-Aug-22 12:30 185 4 gusting 7 27.2
2019-Aug-22 12:25 192 5 gusting 10 27.8
2019-Aug-22 12:20 233 6 gusting 10 27.8
2019-Aug-22 12:15 239 6 gusting 10 27.2
2019-Aug-22 12:10 193 5 gusting 8 27.2
2019-Aug-22 12:05 238 6 gusting 10 27.2
2019-Aug-22 12:00 276 6 gusting 10 26.7
2019-Aug-22 11:55 255 5 gusting 7 25.6
2019-Aug-22 11:50 293 4 gusting 7 25.0
2019-Aug-22 11:45 256 6 gusting 10 25.0
2019-Aug-22 11:40 263 5 gusting 7 25.0
2019-Aug-22 11:35 240 4 gusting 7 24.4
2019-Aug-22 11:30 252 4 gusting 6 24.4
2019-Aug-22 11:25 257 4 gusting 6 24.4
2019-Aug-22 11:20 250 4 gusting 6 24.4
2019-Aug-22 11:15 246 4 gusting 7 25.0
2019-Aug-22 11:10 215 3 gusting 7 24.4
2019-Aug-22 11:05 241 4 gusting 7 24.4
2019-Aug-22 11:00 211 2 gusting 7 24.4
2019-Aug-22 10:55 204 3 gusting 7 25.0
2019-Aug-22 10:50 201 4 gusting 7 24.4
2019-Aug-22 10:45 231 2 gusting 6 24.4
2019-Aug-22 10:40 230 3 gusting 6 24.4
2019-Aug-22 10:35 209 2 gusting 6 24.4
2019-Aug-22 10:30 215 3 gusting 6 24.4
2019-Aug-22 10:25 198 4 gusting 6 24.4
2019-Aug-22 10:20 153 2 gusting 5 24.4
2019-Aug-22 10:15 228 2 gusting 6 24.4
2019-Aug-22 10:10 182 2 gusting 5 25.0
2019-Aug-22 10:05 160 2 gusting 5 24.4
2019-Aug-22 10:00 164 2 gusting 5 25.0
2019-Aug-22 09:55 144 2 gusting 5 25.0
2019-Aug-22 09:50 164 2 gusting 5 25.0
2019-Aug-22 09:45 169 2 gusting 5 25.0
2019-Aug-22 09:40 162 1 gusting 4 25.0
2019-Aug-22 09:35 158 0 gusting 2 24.4
2019-Aug-22 09:30 168 0 gusting 2 24.4
2019-Aug-22 09:25 210 1 gusting 5 23.9
2019-Aug-22 09:20 156 1 gusting 2 23.9
2019-Aug-22 09:15 201 1 gusting 4 23.9
2019-Aug-22 09:10 210 1 gusting 2 23.9
2019-Aug-22 09:05 187 1 gusting 4 23.9
2019-Aug-22 09:00 206 2 gusting 4 23.9
2019-Aug-22 08:55 160 0 gusting 2 23.3
2019-Aug-22 08:50 288 0 gusting 2 23.3
2019-Aug-22 08:45 297 0 gusting 1 23.3
2019-Aug-22 08:35 297 0 gusting 1 22.8
2019-Aug-22 08:30 297 22.2
2019-Aug-22 08:25 297 22.2
2019-Aug-22 08:20 297 0 gusting 1 21.7
2019-Aug-22 08:15 297 21.7
2019-Aug-22 08:10 297 0 gusting 2 21.7
2019-Aug-22 08:05 297 0 gusting 1 21.7
2019-Aug-22 08:00 297 21.7
2019-Aug-22 07:55 297 21.1
2019-Aug-22 07:50 297 21.1
2019-Aug-22 07:45 297 21.1
2019-Aug-22 07:40 297 21.1
2019-Aug-22 07:35 297 21.1
2019-Aug-22 07:30 297 20.6
2019-Aug-22 07:25 297 20.6
2019-Aug-22 07:20 297 20.6
2019-Aug-22 07:15 297 20.6
2019-Aug-22 07:10 297 20.6
2019-Aug-22 07:05 297 20.6
2019-Aug-22 07:00 297 20.6
2019-Aug-22 06:55 297 20.6
2019-Aug-22 06:50 297 0 gusting 1 20.6
2019-Aug-22 06:45 297 20.6
2019-Aug-22 06:40 297 20.6
2019-Aug-22 06:35 297 20.6
2019-Aug-22 06:30 297 20.6
2019-Aug-22 06:25 297 20.6
2019-Aug-22 06:20 297 20.6
2019-Aug-22 06:15 297 20.6
2019-Aug-22 06:10 297 20.6
2019-Aug-22 06:05 297 0 gusting 1 20.6
2019-Aug-22 06:00 297 20.6
2019-Aug-22 05:55 297 0 gusting 1 20.6
2019-Aug-22 05:50 297 20.6
2019-Aug-22 05:45 297 20.6
2019-Aug-22 05:40 297 20.6
2019-Aug-22 05:35 297 20.6
2019-Aug-22 05:30 297 0 gusting 1 20.6
2019-Aug-22 05:25 297 20.6
2019-Aug-22 05:20 297 1 gusting 2 20.6
2019-Aug-22 05:15 297 0 gusting 1 20.6
2019-Aug-22 05:10 297 0 gusting 1 20.6
2019-Aug-22 05:05 297 0 gusting 2 20.6
2019-Aug-22 05:00 297 1 gusting 2 20.6
2019-Aug-22 04:55 221 0 gusting 2 20.6
2019-Aug-22 04:50 221 0 gusting 1 21.1
2019-Aug-22 04:45 221 0 gusting 2 21.1
2019-Aug-22 04:40 221 0 gusting 1 21.1
2019-Aug-22 04:35 221 21.1
2019-Aug-22 04:30 221 0 gusting 2 21.1
2019-Aug-22 04:25 221 21.1
2019-Aug-22 04:20 221 21.1
2019-Aug-22 04:15 221 21.1
2019-Aug-22 04:10 221 21.1
2019-Aug-22 04:05 221 21.1
2019-Aug-22 04:00 221 21.1
2019-Aug-22 03:55 221 21.1
2019-Aug-22 03:50 221 21.1
2019-Aug-22 03:45 221 21.1
2019-Aug-22 03:40 221 21.1
2019-Aug-22 03:35 221 21.1
2019-Aug-22 03:30 221 21.1
2019-Aug-22 03:20 221 0 gusting 2 21.1
2019-Aug-22 03:15 240 1 gusting 2 21.1
2019-Aug-22 03:10 251 1 gusting 4 21.1
2019-Aug-22 03:05 268 2 gusting 4 21.1
2019-Aug-22 03:00 266 1 gusting 4 21.1
2019-Aug-22 02:55 295 2 gusting 6 21.1
2019-Aug-22 02:50 312 4 gusting 6 20.6
2019-Aug-22 02:45 309 4 gusting 6 20.6
2019-Aug-22 02:40 307 4 gusting 6 20.6
2019-Aug-22 02:35 303 3 gusting 6 21.1
2019-Aug-22 02:30 311 1 gusting 2 20.6
2019-Aug-22 02:25 296 1 gusting 2 21.1
2019-Aug-22 02:20 273 0 gusting 2 21.1
2019-Aug-22 02:15 164 21.1
2019-Aug-22 02:10 164 21.1
2019-Aug-22 02:05 164 21.1
2019-Aug-22 02:00 164 21.1
2019-Aug-22 01:55 288 0 gusting 1 21.1
2019-Aug-22 01:50 288 21.1
2019-Aug-22 01:45 288 0 gusting 2 21.1
2019-Aug-22 01:40 288 0 gusting 2 21.1
2019-Aug-22 01:35 155 21.1
2019-Aug-22 01:30 155 21.1
2019-Aug-22 01:25 155 21.1
2019-Aug-22 01:20 155 21.1
2019-Aug-22 01:15 155 21.1
2019-Aug-22 01:10 155 21.1
2019-Aug-22 01:05 155 21.1
2019-Aug-22 01:00 155 21.1
2019-Aug-22 00:55 155 21.1
2019-Aug-22 00:50 155 21.1
2019-Aug-22 00:45 155 21.7
2019-Aug-22 00:40 155 21.7
2019-Aug-22 00:35 155 21.7
2019-Aug-22 00:30 155 21.7
2019-Aug-22 00:25 155 21.7
2019-Aug-22 00:20 155 21.7
2019-Aug-22 00:15 155 21.7
2019-Aug-22 00:10 155 21.7
2019-Aug-22 00:05 155 21.7
2019-Aug-22 00:00 155 21.7
2019-Aug-21 23:55 155 21.7
2019-Aug-21 23:50 155 21.7
2019-Aug-21 23:45 155 21.7
2019-Aug-21 23:40 155 21.7
2019-Aug-21 23:35 190 22.2
2019-Aug-21 23:30 190 22.2
2019-Aug-21 23:25 190 22.2
2019-Aug-21 23:20 236 22.2
2019-Aug-21 23:15 236 22.2
2019-Aug-21 23:10 236 22.2
2019-Aug-21 23:05 236 0 gusting 2 22.2
2019-Aug-21 23:00 211 22.2
2019-Aug-21 22:55 263 22.2
2019-Aug-21 22:50 263 0 gusting 2 22.2
2019-Aug-21 22:45 263 22.2
2019-Aug-21 22:40 263 22.2
2019-Aug-21 22:35 263 22.2
2019-Aug-21 22:30 263 0 gusting 2 22.2
2019-Aug-21 22:25 263 1 gusting 2 22.2
2019-Aug-21 22:20 252 0 gusting 2 22.2
2019-Aug-21 22:15 293 22.2
2019-Aug-21 22:10 293 22.2
2019-Aug-21 22:05 293 0 gusting 2 22.2
2019-Aug-21 22:00 293 1 gusting 2 22.2
2019-Aug-21 21:55 293 1 gusting 2 22.2
2019-Aug-21 21:50 293 0 gusting 1 22.2
2019-Aug-21 21:45 293 0 gusting 2 22.2
2019-Aug-21 21:40 293 0 gusting 1 22.2
2019-Aug-21 21:35 293 0 gusting 2 22.2
2019-Aug-21 21:30 236 22.2
2019-Aug-21 21:25 236 22.2
2019-Aug-21 21:20 236 22.2
2019-Aug-21 21:15 236 22.2
2019-Aug-21 21:10 236 22.2
2019-Aug-21 21:05 236 22.2
2019-Aug-21 21:00 198 22.2
2019-Aug-21 20:55 198 22.2
2019-Aug-21 20:50 207 0 gusting 2 22.8
2019-Aug-21 20:45 263 22.8
2019-Aug-21 20:40 244 1 gusting 4 22.8
2019-Aug-21 20:35 240 1 gusting 5 22.8
2019-Aug-21 20:30 230 2 gusting 4 22.8
2019-Aug-21 20:25 239 1 gusting 5 22.8
2019-Aug-21 20:20 235 1 gusting 4 22.8
2019-Aug-21 20:15 246 2 gusting 6 22.8
2019-Aug-21 20:10 216 3 gusting 6 23.3
2019-Aug-21 20:05 240 1 gusting 4 23.3
2019-Aug-21 20:00 234 3 gusting 6 23.3
2019-Aug-21 19:55 230 4 gusting 6 23.3
2019-Aug-21 19:50 246 2 gusting 6 23.3
2019-Aug-21 19:45 235 3 gusting 6 23.3
2019-Aug-21 19:40 242 4 gusting 6 23.3
2019-Aug-21 19:35 240 5 gusting 7 23.3
2019-Aug-21 19:30 254 5 gusting 7 23.3
2019-Aug-21 19:25 255 5 gusting 7 23.9
2019-Aug-21 19:20 238 5 gusting 7 23.9
2019-Aug-21 19:15 236 2 gusting 6 23.9
2019-Aug-21 19:10 244 2 gusting 6 23.9
2019-Aug-21 19:05 231 2 gusting 6 23.9
2019-Aug-21 19:00 249 3 gusting 6 23.9
2019-Aug-21 18:55 247 1 gusting 5 23.9
2019-Aug-21 18:50 222 3 gusting 5 24.4
2019-Aug-21 18:45 236 2 gusting 5 23.9
2019-Aug-21 18:40 232 3 gusting 5 24.4
2019-Aug-21 18:35 235 2 gusting 6 24.4
2019-Aug-21 18:30 240 2 gusting 6 24.4
2019-Aug-21 18:25 220 2 gusting 6 24.4
2019-Aug-21 18:20 234 3 gusting 6 24.4
2019-Aug-21 18:15 217 4 gusting 7 24.4
2019-Aug-21 18:10 221 4 gusting 6 25.0
2019-Aug-21 18:05 205 3 gusting 6 25.0
2019-Aug-21 18:00 236 2 gusting 6 25.0
2019-Aug-21 17:55 241 4 gusting 6 25.0
2019-Aug-21 17:50 232 1 gusting 7 24.4
2019-Aug-21 17:45 224 4 gusting 6 25.0
2019-Aug-21 17:40 217 3 gusting 8 25.0
2019-Aug-21 17:35 225 5 gusting 6 25.6
2019-Aug-21 17:30 201 4 gusting 6 25.6
2019-Aug-21 17:25 189 4 gusting 7 25.6
2019-Aug-21 17:15 231 6 gusting 8 25.6
2019-Aug-21 17:10 198 4 gusting 6 26.1
2019-Aug-21 17:05 230 4 gusting 6 26.1
2019-Aug-21 17:00 250 2 gusting 7 26.1
2019-Aug-21 16:55 193 2 gusting 6 26.1
2019-Aug-21 16:50 238 5 gusting 8 26.7
2019-Aug-21 16:45 199 3 gusting 7 26.7
2019-Aug-21 16:40 195 4 gusting 6 26.1
2019-Aug-21 16:35 170 4 gusting 10 26.1
2019-Aug-21 16:30 215 4 gusting 6 26.1
2019-Aug-21 16:25 193 5 gusting 12 26.1
2019-Aug-21 16:20 236 5 gusting 10 26.7
2019-Aug-21 16:15 234 6 gusting 10 26.7
2019-Aug-21 16:10 222 6 gusting 10 26.7
2019-Aug-21 16:05 216 5 gusting 10 26.7
2019-Aug-21 16:00 225 6 gusting 8 26.7
2019-Aug-21 15:55 244 3 gusting 8 26.7
2019-Aug-21 15:50 248 6 gusting 10 26.7
2019-Aug-21 15:45 234 6 gusting 10 26.7
2019-Aug-21 15:40 208 4 gusting 10 26.7
2019-Aug-21 15:35 216 5 gusting 10 26.7
2019-Aug-21 15:30 241 5 gusting 10 27.2
2019-Aug-21 15:20 240 6 gusting 10 26.7
2019-Aug-21 15:15 214 6 gusting 11 26.7
2019-Aug-21 15:10 231 5 gusting 10 26.7
2019-Aug-21 15:05 247 6 gusting 10 26.1
2019-Aug-21 15:00 224 6 gusting 10 26.7
2019-Aug-21 14:55 248 6 gusting 10 26.7
2019-Aug-21 14:50 230 6 gusting 10 26.1
2019-Aug-21 14:45 256 6 gusting 10 26.1
2019-Aug-21 14:40 228 6 gusting 10 26.1
2019-Aug-21 14:35 201 5 gusting 10 26.1
2019-Aug-21 14:30 221 4 gusting 10 25.6
2019-Aug-21 14:25 221 6 gusting 10 25.6
2019-Aug-21 14:20 237 6 gusting 11 26.1
2019-Aug-21 14:15 231 4 gusting 10 26.1
2019-Aug-21 14:10 229 5 gusting 10 26.7
2019-Aug-21 14:05 224 4 gusting 10 26.1
2019-Aug-21 14:00 249 6 gusting 10 26.1
2019-Aug-21 13:55 203 6 gusting 11 25.6
2019-Aug-21 13:50 226 7 gusting 11 25.6
2019-Aug-21 13:45 240 6 gusting 10 25.6
2019-Aug-21 13:40 251 4 gusting 8 26.1
2019-Aug-21 13:35 192 4 gusting 10 25.6
2019-Aug-21 13:30 216 6 gusting 10 25.6
2019-Aug-21 13:25 219 5 gusting 10 25.6
2019-Aug-21 13:20 224 6 gusting 10 25.6
2019-Aug-21 13:15 231 7 gusting 11 25.0
2019-Aug-21 13:10 217 5 gusting 10 25.6
2019-Aug-21 13:05 221 6 gusting 12 25.6
2019-Aug-21 13:00 221 6 gusting 10 25.6
2019-Aug-21 12:55 238 7 gusting 11 25.6
2019-Aug-21 12:50 200 5 gusting 8 25.6
2019-Aug-21 12:45 204 5 gusting 8 25.0
2019-Aug-21 12:40 223 5 gusting 10 25.0
2019-Aug-21 12:35 219 4 gusting 10 25.6
2019-Aug-21 12:30 239 6 gusting 10 25.0
2019-Aug-21 12:25 244 6 gusting 10 25.6
2019-Aug-21 12:20 235 5 gusting 11 25.6
2019-Aug-21 12:15 205 5 gusting 10 25.6
2019-Aug-21 12:10 231 5 gusting 8 25.6
2019-Aug-21 12:05 233 5 gusting 8 25.0
2019-Aug-21 12:00 216 4 gusting 8 25.6
2019-Aug-21 11:55 222 4 gusting 6 25.6
2019-Aug-21 11:50 201 5 gusting 10 25.0
2019-Aug-21 11:45 243 5 gusting 8 25.6
2019-Aug-21 11:40 224 5 gusting 10 25.6
2019-Aug-21 11:35 213 2 gusting 6 25.6
2019-Aug-21 11:30 255 4 gusting 6 25.6
2019-Aug-21 11:25 223 4 gusting 7 25.0
2019-Aug-21 11:20 241 4 gusting 7 25.0
2019-Aug-21 11:15 249 4 gusting 7 25.6
2019-Aug-21 11:10 225 4 gusting 8 25.0
2019-Aug-21 11:05 227 2 gusting 7 25.0
2019-Aug-21 11:00 219 3 gusting 6 25.0
2019-Aug-21 10:55 235 4 gusting 7 25.0
2019-Aug-21 10:50 239 4 gusting 8 24.4
2019-Aug-21 10:45 248 4 gusting 6 25.0
2019-Aug-21 10:40 238 4 gusting 6 25.0
2019-Aug-21 10:35 255 4 gusting 7 24.4
2019-Aug-21 10:25 220 2 gusting 6 24.4
2019-Aug-21 10:20 191 3 gusting 6 24.4
2019-Aug-21 10:15 217 3 gusting 6 24.4
2019-Aug-21 10:10 236 3 gusting 6 23.9
2019-Aug-21 10:05 252 4 gusting 6 23.9
2019-Aug-21 10:00 231 2 gusting 6 23.9
2019-Aug-21 09:55 195 3 gusting 5 23.9
2019-Aug-21 09:50 202 2 gusting 4 23.9
2019-Aug-21 09:45 196 1 gusting 4 23.9
2019-Aug-21 09:40 231 2 gusting 5 23.9
2019-Aug-21 09:35 250 3 gusting 5 23.3
2019-Aug-21 09:30 209 4 gusting 6 23.3
2019-Aug-21 09:25 200 2 gusting 5 23.3
2019-Aug-21 09:20 210 1 gusting 4 23.3
2019-Aug-21 09:15 219 1 gusting 5 23.3
2019-Aug-21 09:10 184 2 gusting 6 23.3
2019-Aug-21 09:05 244 0 gusting 2 22.8
2019-Aug-21 09:00 219 1 gusting 4 22.8
2019-Aug-21 08:55 286 1 gusting 2 22.8
2019-Aug-21 08:50 202 0 gusting 2 22.8
2019-Aug-21 08:45 192 2 gusting 4 22.8
2019-Aug-21 08:40 207 1 gusting 2 22.8
2019-Aug-21 08:35 220 2 gusting 2 22.2
2019-Aug-21 08:30 225 0 gusting 2 22.2
2019-Aug-21 08:25 225 0 gusting 2 22.2
2019-Aug-21 08:20 225 1 gusting 4 22.2
2019-Aug-21 08:15 235 1 gusting 2 22.2
2019-Aug-21 08:10 252 0 gusting 2 22.2
2019-Aug-21 08:05 252 21.7
2019-Aug-21 08:00 252 0 gusting 2 21.7
2019-Aug-21 07:55 252 0 gusting 1 21.7
2019-Aug-21 07:50 252 0 gusting 2 21.7
2019-Aug-21 07:45 231 0 gusting 1 21.7
2019-Aug-21 07:40 292 21.7
2019-Aug-21 07:35 292 21.1
2019-Aug-21 07:30 292 21.1
2019-Aug-21 07:25 292 21.1
2019-Aug-21 07:20 292 21.1
2019-Aug-21 07:15 292 0 gusting 2 21.1
2019-Aug-21 07:10 292 0 gusting 1 21.1
2019-Aug-21 07:05 292 20.6
2019-Aug-21 07:00 292 0 gusting 1 20.6
2019-Aug-21 06:55 292 0 gusting 2 20.6
2019-Aug-21 06:50 292 21.1
2019-Aug-21 06:45 292 20.6
2019-Aug-21 06:40 292 20.6
2019-Aug-21 06:35 292 20.6
2019-Aug-21 06:30 292 20.6
2019-Aug-21 06:25 292 20.6
2019-Aug-21 06:20 292 0 gusting 2 20.6
2019-Aug-21 06:15 292 20.6
2019-Aug-21 06:10 292 20.0
2019-Aug-21 06:05 292 20.0
2019-Aug-21 06:00 292 0 gusting 2 20.0
2019-Aug-21 05:55 292 1 gusting 4 20.0
2019-Aug-21 05:50 304 0 gusting 4 20.0
2019-Aug-21 05:45 304 0 gusting 2 20.0
2019-Aug-21 05:40 304 20.0
2019-Aug-21 05:35 304 20.0
2019-Aug-21 05:30 304 0 gusting 2 20.0
2019-Aug-21 05:25 304 20.6
2019-Aug-21 05:20 304 0 gusting 2 20.6
2019-Aug-21 05:15 304 0 gusting 2 20.6
2019-Aug-21 05:10 305 0 gusting 2 20.6
2019-Aug-21 05:05 305 1 gusting 2 20.6
2019-Aug-21 05:00 305 0 gusting 2 20.6
2019-Aug-21 04:55 305 1 gusting 2 20.6
2019-Aug-21 04:50 305 1 gusting 2 21.1
2019-Aug-21 04:45 305 0 gusting 2 21.1
2019-Aug-21 04:40 305 1 gusting 1 21.1
2019-Aug-21 04:35 305 21.1
2019-Aug-21 04:30 305 21.1
2019-Aug-21 04:25 305 21.1
2019-Aug-21 04:20 305 0 gusting 1 21.1
2019-Aug-21 04:15 305 1 gusting 2 21.1
2019-Aug-21 04:10 305 1 gusting 2 21.1
2019-Aug-21 04:05 305 1 gusting 2 21.1
2019-Aug-21 04:00 273 1 gusting 2 21.1
2019-Aug-21 03:55 291 1 gusting 2 21.1
2019-Aug-21 03:50 292 1 gusting 2 21.1
2019-Aug-21 03:45 293 2 gusting 2 21.1
2019-Aug-21 03:40 309 1 gusting 2 21.1
2019-Aug-21 03:35 287 1 gusting 2 21.1
2019-Aug-21 03:30 268 1 gusting 2 21.1
2019-Aug-21 03:20 292 1 gusting 2 21.1
2019-Aug-21 03:15 257 1 gusting 4 21.1
2019-Aug-21 03:10 260 1 gusting 2 21.7
2019-Aug-21 03:05 258 1 gusting 2 21.7
2019-Aug-21 03:00 269 2 gusting 5 21.7
2019-Aug-21 02:55 253 2 gusting 5 21.7
2019-Aug-21 02:50 253 2 gusting 4 21.7
2019-Aug-21 02:45 255 1 gusting 2 21.7
2019-Aug-21 02:40 259 1 gusting 4 21.7
2019-Aug-21 02:35 248 1 gusting 5 21.7
2019-Aug-21 02:30 257 0 gusting 5 21.7
2019-Aug-21 02:25 257 1 gusting 2 21.7
2019-Aug-21 02:20 257 0 gusting 2 21.7
2019-Aug-21 02:15 257 21.7
2019-Aug-21 02:10 257 0 gusting 2 21.7
2019-Aug-21 02:05 265 0 gusting 2 21.7
2019-Aug-21 02:00 242 0 gusting 4 21.7
2019-Aug-21 01:55 249 1 gusting 4 21.7
2019-Aug-21 01:50 310 21.7
2019-Aug-21 01:45 310 21.7
2019-Aug-21 01:40 310 21.7
2019-Aug-21 01:35 310 0 gusting 2 21.7
2019-Aug-21 01:30 310 1 gusting 2 21.7
2019-Aug-21 01:25 310 21.7
2019-Aug-21 01:20 310 21.7
2019-Aug-21 01:15 310 21.7
2019-Aug-21 01:10 310 0 gusting 1 21.7
2019-Aug-21 01:05 310 22.2
2019-Aug-21 01:00 310 0 gusting 1 22.2
2019-Aug-21 00:55 310 22.2
2019-Aug-21 00:50 310 22.2
2019-Aug-21 00:45 310 22.2
2019-Aug-21 00:40 310 22.2
2019-Aug-21 00:35 310 22.2
2019-Aug-21 00:30 310 1 gusting 2 22.2
2019-Aug-21 00:25 310 0 gusting 2 22.2
2019-Aug-21 00:20 310 22.2
2019-Aug-21 00:15 310 0 gusting 1 22.8
2019-Aug-21 00:10 310 22.8
2019-Aug-21 00:05 310 0 gusting 2 22.8
2019-Aug-21 00:00 310 22.8
2019-Aug-20 23:55 310 0 gusting 1 22.8
2019-Aug-20 23:50 310 0 gusting 1 22.8
2019-Aug-20 23:45 310 0 gusting 2 22.8
2019-Aug-20 23:40 310 0 gusting 2 22.8
2019-Aug-20 23:35 310 1 gusting 2 22.8
2019-Aug-20 23:30 310 1 gusting 2 22.8
2019-Aug-20 23:25 236 22.8
2019-Aug-20 23:20 236 22.8
2019-Aug-20 23:15 236 22.8
2019-Aug-20 23:10 236 22.8
2019-Aug-20 23:05 236 22.8
2019-Aug-20 23:00 236 22.8
2019-Aug-20 22:55 274 23.3
2019-Aug-20 22:50 274 0 gusting 2 23.3
2019-Aug-20 22:45 248 23.3
2019-Aug-20 22:40 248 0 gusting 2 23.3
2019-Aug-20 22:35 248 0 gusting 2 23.3
2019-Aug-20 22:30 248 0 gusting 1 23.3
2019-Aug-20 22:25 248 0 gusting 1 23.3
2019-Aug-20 22:20 248 1 gusting 2 23.3
2019-Aug-20 22:15 254 0 gusting 2 23.3
2019-Aug-20 22:10 252 23.3
2019-Aug-20 22:05 270 1 gusting 2 23.3
2019-Aug-20 22:00 270 23.3
2019-Aug-20 21:55 221 23.3
2019-Aug-20 21:50 221 0 gusting 2 23.3
2019-Aug-20 21:45 221 0 gusting 2 23.3
2019-Aug-20 21:40 221 23.3
2019-Aug-20 21:35 221 23.3
2019-Aug-20 21:30 221 0 gusting 1 23.3
2019-Aug-20 21:25 221 23.3
2019-Aug-20 21:20 221 23.9
2019-Aug-20 21:15 221 23.9
2019-Aug-20 21:10 221 23.9
2019-Aug-20 21:05 221 23.9
2019-Aug-20 21:00 221 23.9
2019-Aug-20 20:55 221 23.3
2019-Aug-20 20:50 221 23.3
2019-Aug-20 20:45 221 23.9
2019-Aug-20 20:40 221 23.9
2019-Aug-20 20:35 221 23.9
2019-Aug-20 20:30 221 23.9
2019-Aug-20 20:25 221 0 gusting 2 23.9
2019-Aug-20 20:20 221 24.4
2019-Aug-20 20:15 197 24.4
2019-Aug-20 20:10 191 2 gusting 4 24.4
2019-Aug-20 20:05 180 1 gusting 4 24.4
2019-Aug-20 20:00 219 0 gusting 4 24.4
2019-Aug-20 19:55 198 2 gusting 4 25.0
2019-Aug-20 19:50 191 1 gusting 6 25.0
2019-Aug-20 19:45 189 1 gusting 5 25.0
2019-Aug-20 19:40 231 3 gusting 5 25.0
2019-Aug-20 19:35 202 2 gusting 4 25.6
2019-Aug-20 19:30 238 2 gusting 4 25.6
2019-Aug-20 19:25 201 0 gusting 6 25.6
2019-Aug-20 19:20 197 3 gusting 6 26.1
2019-Aug-20 19:15 225 1 gusting 6 26.1
2019-Aug-20 19:10 223 2 gusting 5 26.1
2019-Aug-20 19:05 206 1 gusting 6 26.1
2019-Aug-20 19:00 239 4 gusting 6 26.1
2019-Aug-20 18:55 230 3 gusting 6 26.1
2019-Aug-20 18:50 227 4 gusting 6 26.7
2019-Aug-20 18:45 231 4 gusting 6 26.7
2019-Aug-20 18:40 233 3 gusting 6 26.7
2019-Aug-20 18:35 222 5 gusting 7 26.7
2019-Aug-20 18:30 248 3 gusting 6 27.2
2019-Aug-20 18:25 224 5 gusting 6 27.2
2019-Aug-20 18:20 234 4 gusting 7 26.7
2019-Aug-20 18:15 227 5 gusting 8 27.2
2019-Aug-20 18:10 256 4 gusting 6 27.2
2019-Aug-20 18:05 246 4 gusting 6 27.2
2019-Aug-20 18:00 216 5 gusting 7 27.2
2019-Aug-20 17:55 242 5 gusting 7 27.8
2019-Aug-20 17:50 244 2 gusting 6 27.8
2019-Aug-20 17:45 250 3 gusting 7 27.8
2019-Aug-20 17:40 225 4 gusting 10 27.8
2019-Aug-20 17:35 241 5 gusting 8 27.8
2019-Aug-20 17:30 229 4 gusting 8 27.8
2019-Aug-20 17:25 247 6 gusting 7 27.8
2019-Aug-20 17:20 236 5 gusting 8 27.8
2019-Aug-20 17:15 245 6 gusting 7 27.8
2019-Aug-20 17:10 245 5 gusting 8 28.3
2019-Aug-20 17:05 226 5 gusting 10 27.8
2019-Aug-20 17:00 242 5 gusting 10 28.3
2019-Aug-20 16:55 225 6 gusting 10 28.3
2019-Aug-20 16:50 234 5 gusting 10 28.3
2019-Aug-20 16:45 237 6 gusting 10 28.3
2019-Aug-20 16:40 208 5 gusting 8 28.3
2019-Aug-20 16:35 243 6 gusting 10 28.3
2019-Aug-20 16:30 222 6 gusting 10 28.3
2019-Aug-20 16:25 226 6 gusting 10 28.3
2019-Aug-20 16:20 251 5 gusting 7 28.3
2019-Aug-20 16:15 220 6 gusting 10 28.3
2019-Aug-20 16:10 240 7 gusting 10 28.3
2019-Aug-20 16:05 244 6 gusting 10 28.3
2019-Aug-20 16:00 241 6 gusting 12 27.8
2019-Aug-20 15:55 222 6 gusting 11 27.8
2019-Aug-20 15:50 231 6 gusting 10 28.3
2019-Aug-20 15:45 228 6 gusting 12 28.3
2019-Aug-20 15:40 230 7 gusting 13 28.3
2019-Aug-20 15:30 217 6 gusting 11 28.3
2019-Aug-20 15:20 231 7 gusting 12 28.3
2019-Aug-20 15:15 219 6 gusting 11 28.3
2019-Aug-20 15:10 230 6 gusting 10 28.9
2019-Aug-20 15:05 247 7 gusting 13 27.8
2019-Aug-20 15:00 235 6 gusting 10 27.8